Вернуться в каталог

SHUTIANYUXING-05

АктивенНаукаSSO
NORAD 67751·PAYLOAD·🇨🇳 China
Это название спутника еще не подтверждено официальными источниками.

Запущен Feb 12, 2026 с South China Sea Launch Area

Loading…

Ближайшие Пролёты (ближайшие 24 часа)

TLE

СвежийSource: Space-Track

Эпоха: Sep 14, 2026, 14:59 UTC

1 67751U 26027F   26257.62497511  .00004445  00000-0  25495-3 0  9995
2 67751  97.5186  23.7190 0010298 159.4274 200.7374 15.13036076 32435

Отслеживайте SHUTIANYUXING-05 в реальном времени с AllMySat

Download on the App Store